Temp
13 13 13 13 13 14 14 14 14 15 15 16 16 18 19 19 21 22 22 23 23 23 24 24 24 24 22 23 23 22 25 24 25 25 26 26 26 22 22 22 21 21 21 21 17
12 13 13 13 13 13 14 14 14 15 15 15 16 17 18 19 20 19 22 23 23 23 23 22 23 21 24 24 23 25 24 24 25 25 26 26 25 26 23 21 21 20 18 18 16
12 12 12 12 12 13 14 14 14 14 15 15 16 17 18 19 19 22 22 22 23 23 23 22 21 22 23 23 23 22 25 24 25 25 24 25 25 24 24 22 23 22 18 17 17
13 13 13 12 12 13 14 14 14 14 15 15 15 16 18 18 21 23 22 21 22 22 22 22 22 22 22 23 23 23 23 24 25 24 23 24 24 24 23 28 22 22 19 18 18
13 13 13 13 13 13 14 14 14 14 14 14 14 15 16 17 19 22 21 21 21 21 21 22 22 22 22 22 22 22 23 23 24 23 24 23 24 24 23 24 20 20 18 18 18
12 11 11 12 12 13 13 14 14 14 14 14 14 14 14 16 20 21 21 21 21 20 20 21 22 22 21 21 22 22 22 22 23 23 24 24 25 23 26 19 19 19 18 18 18
12 11 11 12 12 12 13 14 14 14 14 14 14 13 13 17 21 21 20 19 18 19 20 20 21 21 21 21 21 22 21 23 23 24 23 24 23 23 26 19 20 19 18 18 18
11 11 11 12 12 12 13 14 14 15 15 14 14 12 14 19 18 18 19 19 20 19 18 19 20 21 21 21 21 21 21 22 23 24 24 24 25 25 21 20 21 19 18 18 17
10 10 11 11 12 12 13 14 14 15 14 14 11 12 14 17 17 19 18 18 19 20 18 19 19 20 20 20 20 19 21 21 23 24 24 23 23 23 18 19 21 19 19 18 17
9 9 10 11 11 12 13 15 14 12 11 11 11 13 15 18 18 18 19 19 19 19 19 19 19 20 19 20 20 20 19 20 21 22 22 22 22 24 23 19 21 20 19 18 17
8 9 9 10 11 12 13 13 13 13 11 13 13 13 15 16 17 18 18 19 19 20 19 19 19 19 21 19 21 20 20 20 21 22 21 22 22 23 24 20 21 19 18 18 18
8 9 9 10 10 12 12 11 10 9 11 13 12 13 14 14 14 17 17 18 18 19 19 18 19 20 20 19 19 19 19 20 20 21 20 22 22 23 23 21 21 21 19 19 19
8 8 9 10 11 11 10 9 9 9 10 12 13 13 14 14 14 15 17 17 18 18 19 19 20 20 19 19 18 19 19 19 19 21 21 20 21 22 22 21 21 21 21 20 19
8 8 8 10 11 9 9 9 10 9 10 13 14 15 15 16 15 17 17 17 18 18 19 19 20 19 19 19 19 19 20 19 19 20 20 21 20 22 23 23 21 22 20 20 20
7 7 8 9 8 9 9 10 11 10 12 15 16 16 16 15 16 18 17 17 17 18 19 18 18 19 19 19 19 19 19 19 19 19 18 20 19 22 21 22 22 22 21 20 20
6 7 7 8 8 8 9 10 11 12 11 14 15 15 15 16 16 17 17 17 17 17 17 18 19 19 19 19 20 19 19 18 18 18 18 20 20 22 23 22 23 23 22 21 20
6 6 7 7 7 8 9 9 10 10 13 13 13 14 14 14 15 15 14 14 14 15 15 17 18 19 19 18 18 17 16 16 18 17 19 21 20 22 24 23 20 17 17 18 18
6 6 6 7 7 7 8 9 9 11 11 13 13 14 14 13 13 14 15 14 13 13 15 15 15 16 16 17 18 18 15 14 15 18 20 18 20 22 19 17 17 17 17 16 17
6 6 6 6 7 7 8 8 9 10 12 12 13 13 13 12 12 13 12 10 10 11 11 11 14 15 15 15 15 17 17 18 16 17 17 18 20 21 18 17 16 17 17 16 16
5 5 5 6 6 7 8 9 9 11 11 12 11 12 12 11 11 10 10 9 9 10 11 9 11 13 13 14 14 14 14 13 14 15 16 18 18 20 15 15 16 16 16 15 15
5 3 5 6 6 6 6 6 8 10 11 11 11 11 11 10 10 10 9 11 10 11 12 12 9 12 14 12 11 11 11 11 12 13 15 17 18 15 14 14 15 15 15 15 15
3 2 5 5 4 4 5 6 8 9 10 10 10 11 11 10 9 10 10 12 12 13 11 8 9 10 11 13 13 13 12 10 11 11 10 11 15 15 15 16 15 15 15 15 15
2 2 5 5 3 3 5 6 8 8 9 9 9 10 10 10 9 10 11 11 11 11 10 9 9 9 11 12 11 10 9 9 8 8 10 10 14 14 16 16 15 14 15 16 15
1 2 1 4 3 4 5 6 7 8 8 9 9 9 9 9 9 9 9 10 10 11 11 10 9 10 9 11 10 10 11 11 10 9 10 10 12 14 15 14 14 15 15 15 15
-0 2 3 2 3 4 4 5 6 6 7 7 7 8 9 8 7 8 8 9 9 10 10 10 8 9 10 10 10 10 10 11 10 10 9 11 12 13 14 15 15 15 15 15 15
0 1 2 3 3 5 5 5 5 5 5 5 6 5 6 6 7 7 8 8 8 9 9 8 7 7 7 9 9 9 10 10 10 10 11 11 11 14 14 14 15 15 15 15 15
0 1 2 2 3 4 5 4 4 5 5 5 5 4 4 5 6 8 7 8 8 8 8 8 7 5 7 9 8 7 9 10 10 11 11 10 12 14 14 14 14 14 15 15 15
Height
817 817 816 817 817 815 815 813 812 809 805 802 800 796 791 787 781 779 776 777 777 774 772 771 770 767 766 768 770 772 782 786 780 779 769 759 762 762 762 765 767 765 764 764 772
816 816 815 814 816 815 814 811 811 808 805 801 798 795 790 786 780 776 776 774 774 773 770 770 769 769 768 769 770 772 781 779 767 765 765 761 761 757 763 767 765 766 767 768 772
816 816 816 813 815 812 813 809 809 806 804 801 798 795 790 786 782 773 773 773 773 770 770 770 770 771 771 771 771 774 772 768 763 760 761 761 758 755 758 765 751 751 764 769 770
814 814 814 813 813 810 810 808 807 804 803 801 798 795 791 788 793 772 772 772 771 768 770 770 769 772 775 775 771 776 767 765 761 758 760 759 755 756 754 740 745 746 753 763 767
813 812 811 811 811 810 806 805 805 803 801 800 798 795 793 791 781 773 771 770 769 768 767 770 771 772 778 775 773 772 765 764 761 759 756 755 753 753 750 741 745 748 752 755 760
808 808 809 806 811 807 805 803 800 801 799 797 795 796 796 794 770 770 769 768 767 768 767 767 768 769 772 773 774 768 765 762 758 755 751 751 746 751 737 743 745 748 749 750 754
804 805 808 805 805 806 804 800 798 797 796 795 793 794 796 776 768 766 765 762 762 765 765 764 765 768 768 772 765 765 769 757 751 746 748 741 753 748 732 742 744 746 748 750 751
804 802 801 803 800 802 799 796 794 793 790 791 790 791 786 765 763 760 762 759 758 757 759 761 764 765 767 765 766 769 770 767 747 743 738 742 745 735 739 742 739 743 746 748 750
802 800 798 801 799 798 795 792 788 787 785 785 790 788 778 762 761 756 756 757 755 755 755 760 761 763 767 770 775 774 769 767 753 738 738 744 747 739 744 744 741 743 744 745 749
802 803 799 797 797 795 793 788 784 785 785 786 788 790 769 760 758 756 755 756 754 753 757 761 762 763 769 770 771 768 773 767 759 745 744 747 748 736 735 742 736 737 739 741 743
801 801 798 797 795 796 790 787 788 786 787 783 781 774 766 761 759 754 755 756 752 753 758 758 763 762 748 758 755 757 764 763 750 742 749 743 742 737 728 739 735 735 736 736 735
799 801 795 796 795 795 791 794 797 801 785 777 769 766 764 765 764 756 758 761 755 752 754 760 755 744 747 753 758 759 759 758 749 741 746 737 737 730 726 729 726 724 727 725 726
799 798 794 794 793 795 797 797 795 794 790 772 762 760 756 758 758 749 753 750 752 752 749 746 742 737 747 753 759 756 757 753 755 740 737 736 728 726 719 720 718 716 714 716 719
798 794 791 792 794 797 796 798 793 792 792 769 759 755 752 752 751 738 738 747 746 745 746 744 736 741 745 746 746 750 743 745 748 749 747 736 737 722 718 715 715 708 710 709 711
798 795 791 792 794 798 797 794 791 794 787 763 756 752 750 752 745 736 735 740 746 742 738 737 739 740 740 739 742 741 738 741 742 747 748 739 745 713 717 715 709 701 702 702 701
796 795 793 793 794 796 795 793 792 796 788 762 758 760 757 751 746 739 736 738 739 744 739 736 733 734 732 732 732 737 740 742 744 748 743 730 740 708 706 706 699 694 699 699 698
796 794 793 794 796 795 795 794 802 801 770 769 766 762 762 760 753 748 749 755 755 750 746 739 735 732 732 739 736 744 752 756 748 748 728 717 726 706 694 696 709 717 715 709 704
794 793 791 792 795 796 796 798 807 780 781 770 770 762 762 766 765 758 749 757 759 758 750 749 746 741 740 738 735 735 749 760 753 739 724 730 715 700 709 716 717 717 716 713 708
794 790 789 791 794 796 798 802 790 783 774 774 768 764 765 767 767 766 768 782 780 775 770 767 749 746 743 744 742 731 735 731 745 738 743 719 702 700 706 713 715 714 712 713 710
795 792 789 790 792 796 798 789 788 778 775 776 775 772 772 776 773 777 784 791 786 785 779 787 768 759 754 749 747 749 749 750 746 736 733 708 710 699 725 724 719 715 716 717 714
794 796 793 789 793 797 800 803 788 781 778 780 779 775 776 781 780 783 788 781 782 782 778 778 789 762 754 759 765 764 759 756 749 741 726 711 702 718 724 725 721 718 717 716 713
795 802 794 794 799 801 800 794 789 783 781 781 780 778 780 783 784 779 777 772 772 770 776 789 784 777 765 755 756 752 756 764 752 758 760 749 720 714 714 719 722 720 718 715 712
797 798 792 793 806 803 794 794 789 786 785 782 783 782 783 783 785 780 775 776 774 772 777 781 784 783 760 755 764 769 773 774 778 779 764 757 721 718 712 716 718 720 714 711 710
800 802 798 795 801 798 794 791 790 785 783 782 782 783 785 784 784 782 781 777 778 775 775 775 775 771 773 765 769 767 759 761 768 773 761 759 735 723 721 720 716 713 711 710 706
802 802 800 804 802 796 797 794 789 789 786 785 784 784 782 785 788 786 784 782 778 775 774 773 780 771 765 766 765 765 760 756 761 757 762 739 740 714 715 715 713 711 708 706 702
802 803 802 803 798 794 792 791 791 793 792 792 791 794 793 793 788 788 785 783 779 777 777 779 781 780 778 770 769 768 760 756 755 749 747 738 731 715 706 710 706 705 700 698 695
799 801 801 804 798 794 793 796 799 795 796 795 797 799 798 797 793 787 786 784 781 779 779 781 781 789 776 769 771 773 755 750 741 735 735 734 722 711 705 698 701 698 696 693 689
Wind_Speed
3 4 5 7 9 10 12 14 16 17 18 19 21 23 25 29 27 19 2 1 4 8 9 9 7 12 3 2 2 2 2 4 4 5 2 2 3 2 2 6 3 5 2 5 27
4 5 6 7 10 12 12 13 16 16 19 20 22 23 24 27 25 9 1 2 5 9 8 8 7 7 3 1 1 3 3 7 4 4 3 6 7 4 6 5 6 4 3 22 27
6 6 8 9 13 12 13 14 15 17 19 21 21 23 23 22 6 4 3 4 4 6 8 5 2 1 2 2 1 3 6 5 4 6 3 3 5 5 6 6 13 15 13 18 25
9 9 10 11 13 14 15 15 16 16 18 20 21 22 20 8 6 2 7 15 7 4 5 5 4 3 1 3 1 4 7 5 4 2 4 5 2 5 11 11 4 10 21 21 21
10 10 11 13 16 16 14 16 16 18 17 18 20 19 10 4 9 18 17 11 9 6 4 2 2 0 2 2 4 8 8 5 7 8 10 7 12 8 11 14 3 11 19 22 22
4 5 8 8 13 14 16 18 16 18 17 17 17 15 2 11 7 10 12 16 17 13 8 5 3 2 5 4 4 2 8 11 9 11 10 11 12 5 8 5 6 13 18 20 23
1 3 6 8 11 16 18 18 19 18 18 19 16 7 2 19 18 27 29 28 17 15 7 11 6 5 2 3 3 5 11 16 12 7 8 13 7 10 11 10 11 13 14 16 20
3 2 2 6 8 13 16 18 20 21 21 19 12 3 7 20 19 24 25 26 23 22 21 14 12 8 5 3 4 7 4 9 2 3 2 10 14 10 4 10 13 13 13 16 20
1 1 5 10 11 14 17 19 22 19 14 9 4 4 9 9 9 8 5 6 9 5 6 1 10 5 3 8 6 3 8 9 11 7 5 7 3 2 3 8 11 11 13 15 16
9 12 11 12 15 16 18 19 7 2 5 6 2 1 8 5 3 7 8 9 3 2 4 4 3 5 4 9 11 6 6 6 10 2 3 7 12 16 9 11 15 14 13 15 16
6 9 10 12 13 15 17 4 4 1 4 5 5 6 10 5 12 4 4 9 3 3 7 5 6 13 23 15 15 10 8 11 12 13 7 15 15 15 16 12 15 14 15 17 19
6 9 11 12 14 11 6 5 4 5 8 16 20 16 26 20 11 19 16 7 4 13 5 5 15 17 9 13 13 11 13 16 15 14 4 14 18 18 15 10 15 17 17 21 20
8 10 12 12 10 3 4 5 10 8 5 10 5 7 6 10 8 20 11 4 14 15 13 19 6 16 13 10 12 14 15 13 12 19 9 12 15 11 9 13 12 16 19 18 19
9 10 12 13 2 9 1 12 16 2 4 6 3 5 3 4 6 9 12 12 10 14 15 13 17 8 9 18 16 19 12 14 13 8 10 4 10 16 12 13 11 16 16 18 20
9 11 11 7 6 4 8 18 15 3 5 4 1 1 3 4 8 2 3 11 17 10 9 6 4 16 22 17 10 8 7 8 7 10 11 12 9 7 3 8 13 15 16 18 18
8 9 11 4 4 5 12 16 2 2 7 3 4 8 9 2 4 7 2 2 3 10 17 12 2 2 4 5 15 1 2 3 3 3 13 13 11 7 7 6 5 9 9 13 15
9 9 8 5 2 7 13 5 2 5 4 3 4 6 6 6 8 8 5 11 4 2 3 5 20 14 3 3 2 0 3 2 5 6 12 3 9 12 7 12 12 14 15 16 12
9 10 7 7 8 10 7 3 7 1 3 3 3 7 2 11 7 9 4 5 14 7 2 2 2 5 7 8 15 18 10 3 4 5 7 3 8 3 11 13 13 13 12 13 17
10 7 5 2 3 3 2 3 5 3 2 3 4 2 3 4 3 9 9 9 9 16 6 7 1 7 8 8 5 2 10 13 18 21 13 11 11 10 9 15 16 16 17 17 17
6 6 3 3 2 4 3 6 4 3 2 3 0 3 2 4 4 6 7 4 3 8 8 7 6 5 9 11 9 6 5 2 4 6 9 6 8 4 9 12 16 17 16 14 14
3 3 4 0 8 1 4 5 3 4 1 2 1 2 1 0 2 4 3 4 5 4 6 8 2 7 7 3 9 7 3 3 3 3 3 6 3 9 10 12 15 14 14 13 12
3 1 5 8 2 2 2 2 4 2 3 2 1 3 5 5 2 5 7 7 7 5 2 4 3 4 6 15 11 8 6 2 3 5 3 4 4 12 6 17 13 14 14 13 10
2 1 3 3 2 2 1 3 2 2 1 1 1 0 2 3 4 2 5 3 4 2 4 6 3 5 10 3 7 3 3 2 6 2 5 4 4 1 21 22 15 14 18 16 12
2 1 3 2 1 3 3 3 4 3 5 4 3 2 4 4 5 3 3 2 4 1 7 7 5 8 9 11 8 13 14 15 8 5 10 11 25 23 19 19 21 20 19 17 16
2 1 1 1 1 1 1 2 3 3 2 3 2 8 10 7 5 6 4 2 2 4 2 3 4 8 12 11 8 13 17 18 13 14 11 23 20 29 24 22 21 21 18 20 18
3 2 1 1 2 2 3 1 4 4 4 3 3 3 2 2 5 3 2 2 4 1 2 1 3 2 6 9 9 12 17 19 18 19 18 22 22 25 26 22 21 18 18 19 19
2 2 2 2 1 1 0 3 4 2 3 4 3 2 2 3 5 7 5 5 5 5 4 4 3 2 11 8 9 10 20 19 19 19 15 15 19 22 25 25 20 19 20 19 19
Wind_Direction
335 340 348 347 344 343 341 343 342 343 345 345 343 343 344 339 334 333 303 319 328 352 353 354 10 2 77 106 107 143 196 229 234 209 256 250 252 125 113 148 212 210 172 148 150
330 333 338 343 334 331 330 338 336 339 340 341 340 341 342 340 331 310 217 336 334 351 7 16 3 358 15 32 158 197 207 218 228 200 250 296 280 221 179 179 214 208 110 147 150
308 319 324 330 325 318 321 332 329 331 333 336 337 337 343 341 315 215 120 348 298 0 4 18 35 22 14 338 198 183 242 214 234 245 210 262 266 182 186 216 219 209 161 165 164
283 289 297 313 307 317 318 320 320 323 327 330 332 336 343 347 294 253 253 318 295 331 358 356 8 14 304 265 301 270 248 235 264 212 330 280 171 224 216 247 336 183 165 170 180
279 280 289 298 295 303 310 309 312 315 321 321 327 335 354 328 252 277 286 290 286 299 353 323 328 9 261 264 286 247 269 270 267 282 287 268 253 241 236 241 337 163 168 182 187
257 296 308 304 301 300 300 302 306 309 312 314 316 328 4 281 249 286 291 290 282 298 293 191 211 176 276 235 215 303 285 281 276 267 251 247 260 188 240 178 169 176 190 187 191
249 295 312 321 319 317 313 309 308 307 304 304 303 311 205 251 271 282 279 280 274 272 264 223 209 201 180 270 251 274 296 300 262 252 233 237 235 223 235 178 188 200 200 199 199
112 93 19 331 330 318 313 308 307 303 299 291 279 193 244 274 276 274 276 282 283 271 243 251 238 230 226 266 282 282 270 282 243 200 239 182 258 254 211 197 212 206 203 203 204
154 356 343 323 319 320 319 317 309 299 296 285 192 177 257 297 271 294 252 249 303 270 227 47 158 177 161 227 261 215 257 244 286 240 242 209 278 354 185 209 244 228 220 212 207
315 313 317 328 331 324 317 319 312 52 57 84 144 291 258 251 305 303 291 268 267 332 114 166 143 170 199 203 232 196 225 239 256 112 47 298 283 290 262 216 236 235 225 219 218
341 338 339 333 328 329 336 360 0 353 20 257 258 262 293 295 319 272 13 333 256 189 207 185 198 204 219 215 238 241 246 257 258 280 298 280 276 267 278 221 240 235 227 227 227
358 340 341 334 332 339 16 80 70 316 291 260 248 254 263 276 285 272 286 271 239 223 169 201 227 222 227 202 221 231 249 263 282 278 228 285 277 268 260 236 226 229 227 227 229
340 338 338 339 334 5 5 86 349 338 269 282 221 248 237 197 238 263 225 224 235 236 208 224 213 216 208 208 212 234 238 255 260 294 274 284 281 249 247 245 241 238 234 233 225
343 341 339 340 37 343 47 335 346 82 290 276 254 268 191 201 252 240 217 216 221 244 224 250 237 231 203 227 214 242 229 246 260 281 286 15 287 277 267 251 231 237 227 228 226
354 355 7 1 326 325 318 326 341 159 307 14 330 328 311 203 310 74 195 182 232 231 193 228 185 221 234 228 192 236 193 217 239 260 290 261 269 271 259 259 253 248 235 234 231
352 351 3 10 323 307 323 320 332 52 250 335 16 347 345 270 302 326 122 53 225 241 260 267 50 222 235 225 222 168 203 224 213 250 260 255 229 303 257 240 263 266 279 256 243
358 356 349 331 315 311 326 335 60 212 350 12 1 332 337 333 360 357 65 56 25 280 216 241 254 244 268 327 123 44 76 241 236 211 255 171 225 260 303 344 36 33 22 7 324
354 347 335 304 297 299 336 76 209 206 292 312 320 304 83 21 20 358 93 38 30 0 318 316 170 352 355 248 240 228 170 228 244 229 289 356 246 206 76 82 60 45 30 21 18
347 344 333 37 299 222 101 207 216 206 240 343 321 353 73 20 59 18 34 18 34 26 19 351 215 338 18 341 325 222 208 251 234 247 273 249 258 264 10 34 21 21 19 8 4
356 344 325 315 164 139 187 237 235 238 42 17 29 29 8 18 47 45 12 32 17 40 34 17 295 43 342 0 21 38 284 213 181 213 213 233 229 198 51 35 12 6 2 359 358
18 24 350 59 139 97 198 234 288 314 299 313 260 249 41 331 150 151 193 286 156 320 331 341 90 302 337 14 320 329 330 303 312 275 262 260 201 136 80 24 5 359 351 341 349
102 62 355 145 81 143 181 196 316 338 19 357 278 255 256 187 225 238 212 223 232 246 242 43 251 260 304 293 315 258 287 26 317 30 321 294 271 174 74 352 343 336 335 325 326
103 267 26 138 164 232 196 285 277 335 74 49 295 142 18 154 267 238 250 73 48 89 175 174 165 309 301 192 48 357 51 65 352 275 273 299 270 141 311 324 324 310 317 315 312
80 11 334 41 161 150 191 258 253 234 230 216 229 246 271 250 232 262 252 316 6 7 199 175 219 225 245 256 289 289 289 288 277 260 286 255 285 288 292 302 299 302 310 310 306
39 188 46 23 11 135 49 301 240 248 360 26 227 242 241 241 241 245 237 264 295 290 214 202 245 237 258 272 273 284 285 288 277 263 264 284 279 285 286 288 297 295 296 290 287
135 143 66 231 252 205 139 300 18 14 16 3 329 344 354 191 210 257 283 224 250 326 212 10 271 338 278 278 260 269 270 276 273 269 268 263 269 272 285 288 288 294 293 285 292
151 150 122 344 31 50 13 68 76 16 27 101 20 331 307 306 314 293 270 256 253 255 252 255 231 238 266 274 282 264 255 257 260 263 262 267 274 288 290 289 293 295 289 292 289